カタログに戻る

ATLAS 5 CENTAUR DEB

運用中HEO
NORAD 44896·DEBRIS·🇺🇸 United States

打ち上げ Oct 17, 2018 から Cape Canaveral Space Force Station

Loading…

次のパス (今後24時間)

TLE

経年Source: Space-Track

元期: Aug 28, 2026, 21:38 UTC

1 44896U 18079BK  26240.90150107 -.00000082  00000-0  00000-0 0  9994
2 44896  13.4465 337.0674 4626316  76.1624 329.6406  2.00757123 49167

AllMySatでATLAS 5 CENTAUR DEBをリアルタイム追跡

Download on the App Store